DECAYED

STARLINK-6105, 56118 (Decayed)

Orbit data source: Space-Track

STARLINK-6105, 56118 was a payload satellite owned by SpaceX/Seattle (US) in LEO that was launched on Wed, 29 Mar 2023 UTC via an FALCON 9 launch vehicle from the Air Force Eastern Test Range (AFETR). Payload-class satellites include a variety of spacecraft equipped with specific instruments for various scientific and technological missions. These include communications satellites like Starlink; space stations such as the ISS; scientific satellites like the Hubble; Earth observation satellites from companies like Planet Labs, Umbra, and HawkEye 360; GPS; miniature CubeSats for education and research; and military/defense satellites.

Not visible in the next 10 days
Identifier
56118, 2023-046AB
Orbit
Decayed
Country
Flag of USUS
Related business
Manufacturer
SpaceX/Seattle
Mission
Decayed Commercial Communications
Bus & Motor
STARLINK, Unknown motor
Mass
305 kg wet, ~290 kg dry
Launch date (UTC)
2023-03-29 (3 years ago)
Launch vehicle
FALCON 9
Launch site
Air Force Eastern Test Range (AFETR)
Object type
Payload
Rocket body
Debris
Shape & HBR
Box + 1 Pan, 10.1 m
Radar Cross Section
11.087 m², Large (>1 m²)

Expand to show TLE details & history
Last TLE update: 8 months ago

TLE from 8 months ago
0 STARLINK-6105
1 56118U 23046AB  25305.68371517  .06807709  92431-5  88847-3 0  9998
2 56118  42.9861  46.6150 0004626 313.3054  46.7451 16.34642607143815
Epoch: 2025-11-01T16:24Z
TLE epoch observation values (Epoch: 2025-11-01T16:24:32.990Z)
Latitude
Longitude
119.26727°
Altitude
177.778 km
Speed
7.803 km/s
True Right ascension
03h 06m 27s
True Declination
0° 00' 00"
Sunlit
Object was in full shadow at epoch
Visualization orbit readout
Latitude
Unknown
Longitude
Unknown
Altitude
Unknown
Speed
Unknown
Apparent Right ascension
Unknown
Apparent Declination
Unknown
Sunlit
N/A
Visualization observer readout
Local Sidereal Time
21:54:00
Azimuth
Unknown
Elevation
Unknown
Doppler factor
Unknown
Orbital elements
Apogee altitude
185.165 km
Perigee altitude
179.095 km
Semi-major axis
6,560.267 km
Eccentricity
0.00046
Inclination
42.9861°
RAAN
46.615°
Arg. of periapsis
313.3054°
True anomaly
46.78372°
Mean anomaly
46.7451°
Eccentric anomaly
46.76441°
Mean motion
4.08471 °/min
Orbital period
88.13 mins
BSTAR
0.00088847
Loading maneuver chart data...
Computing Atmospheric mass density...

Documentation

Showing up to 5 results
|